Regional Weather Roundup
Issued by NWS Sioux Falls, SD

Home | Current Version | Previous Version | Text Only | Print | Product List | Glossary Off
Versions: 1 2 3 4 5 6 7 8 9 10 11 12 13 14 15 16 17 18 19 20 21 22 23 24 25 26 27 28 29 30 31 32 33 34 35 36 37 38 39 40 41 42 43 44 45 46 47 48 49 50

000
ASUS43 KFSD 291302
RWRFSD

WEATHER ROUNDUP FOR SE SOUTH DAKOTA/SW MINNESOTA/NW IOWA
NATIONAL WEATHER SERVICE SIOUX FALLS SD
800 AM CDT FRI AUG 29 2014

NOTE: "FAIR" INDICATES FEW OR NO CLOUDS BELOW 12,000 FEET WITH NO
SIGNIFICANT WEATHER AND OR OBSTRUCTIONS TO VISIBILITY.


SDZ038>040-050-052>070-291400-
SOUTHEAST SOUTH DAKOTA

CITY           SKY/WX    TMP DP  RH WIND       PRES   REMARKS
CHAMBERLAIN    CLOUDY    66  66 100 NW6       29.82R FOG
HURON          CLOUDY    68  67  96 N6        29.78S FOG
MADISON        CLOUDY    68  68 100 W8        29.79S FOG
MITCHELL       FOG       69  69 100 NW5       29.79S VSB 1/4
SIOUX FALLS    CLOUDY    69  66  90 VRB5      29.79S
WINNER         PTSUNNY   64  62  93 W7        29.84R
YANKTON        CLOUDY    68  66  94 NW7       29.79S
$$

MNZ071-072-080-081-089-090-097-098-291400-
SOUTHWEST MINNESOTA

CITY           SKY/WX    TMP DP  RH WIND       PRES   REMARKS
FAIRMONT       CLOUDY    64  63  94 SW6       29.81R
JACKSON        CLOUDY    68  64  88 S8        29.82S
LUVERNE        CLOUDY    70  68  94 S7        29.79S FOG
MARSHALL       PTSUNNY   66  64  94 CALM      29.77R
MONTEVIDEO     TSTM      66  66 100 CALM      29.77F
PIPESTONE      CLOUDY    70  68  94 SW7       29.79S FOG
REDWOOD FALLS  PTSUNNY   70  66  87 S18       29.77S
TRACY          PTSUNNY   70  69  95 S8        29.79R FOG
WINDOM         PTSUNNY   68  64  88 S9        29.81S
WORTHINGTON    CLOUDY    68  66  94 SW7       29.82S
$$

IAZ001>003-012>014-020>022-031-032-NEZ013-014-SDZ071-291400-
NORTHWEST IOWA

CITY           SKY/WX    TMP DP  RH WIND       PRES   REMARKS
DENISON        PTSUNNY   68  68 100 CALM      29.81R
ESTHERVILLE    CLOUDY    66  66 100 S5        29.81R
LE MARS        CLOUDY    70  68  94 SE8       29.81R
ORANGE CITY    LGT RAIN  70  66  88 S7        29.81R
SHELDON        CLOUDY    68  68 100 S8        29.80S
SIOUX CITY     CLOUDY    71  69  93 SE7       29.80R FOG
SPENCER        CLOUDY    69  66  90 S8        29.82R
STORM LAKE     CLOUDY    68  68 100 S14       29.83R
$$

ABBREVIATIONS USED IN REMARKS
   TC - TEMPERATURE IN CELSIUS
  WCI - WIND CHILL INDEX
   HX - HEAT INDEX
  VSB - VISIBILITY



USA.gov is the U.S. government's official web portal to all federal, state and local government web resources and services.